Terminal Aerodrome Forecast
Issued by NWS Pocatello, ID

Home | Current Version | Previous Version | Text Only | Print | Product List | Glossary On
Versions: 1 2 3 4 5 6 7 8 9 10 11 12 13
000
FTUS45 KPIH 270500
TAFBYI
TAF
KBYI 270532Z 2706/2806 27006KT P6SM BKN015 OVC080
     FM271600 24008KT P6SM SCT018 BKN100=

USA.gov is the U.S. government's official web portal to all federal, state and local government web resources and services.